Sao Paulo, Brazil

4:01 AM -03 on June 28, 2017 (GMT -0300)
Congonhas International

Weather History for SBSP - February, 2013

Change the Weather History Date:

Thursday, February 14, 2013

  Actual Average Record
Temperature  
Mean Temperature 78 °F -  
Max Temperature 89 °F 81 °F 90 °F (2016)
Min Temperature 66 °F 66 °F 62 °F (2007)
Cooling Degree Days 12    
Growing Degree Days 28 (Base 50)    
Moisture  
Dew Point 63 °F    
Average Humidity 66    
Maximum Humidity 88    
Minimum Humidity 23    
Precipitation  
Precipitation 7.44 in - - ()
Sea Level Pressure  
Sea Level Pressure 30.04 in    
Wind  
Wind Speed 5 mph ()    
Max Wind Speed 22 mph    
Max Gust Speed 36 mph    
Visibility 7.0 miles    
Events Rain , Thunderstorm    
Averages and records for this station are not official NWS values.
T = Trace of Precipitation, MM = Missing Value Source: Averaged Metar Reports

Daily Weather History Graph

Daily Weather History Graph

Search for Another Location

Airport or City:

Trip Planner

Search our weather history database for the weather conditions in past years. The results will help you decide how hot, cold, wet, or windy it might be!

Date:

Astronomy

Feb. 14, 2013 Rise Set
Actual Time 6:54 AM -02 7:47 PM -02
Civil Twilight 6:30 AM -02 8:10 PM -02
Nautical Twilight 6:02 AM -02 8:38 PM -02
Astronomical Twilight 5:34 AM -02 9:06 PM -02
Moon 10:51 AM -02 (2/14) 10:33 PM -02 (2/14)
Length of Visible Light 13h 40m
Length of Day
12h 53m
Waxing Crescent, 20% of the Moon is Illuminated
Feb 14
Waxing Crescent
Feb 17
First Quarter
Feb 25
Full
Mar 4
Last Quarter
Mar 11
New

Hourly Weather History & Observations

Time (-02) Temp. Heat Index Dew Point Humidity Pressure Visibility Wind Dir Wind Speed Gust Speed Precip Events Conditions
12:00 AM 73.4 °F - 64.4 °F 73% 30.06 in - NE 4.6 mph - N/A   Clear
1:00 AM 73.4 °F - 64.4 °F 73% 30.06 in - ENE 2.3 mph - N/A   Clear
2:00 AM 73.4 °F - 64.4 °F 73% 30.04 in - ENE 3.5 mph - N/A   Clear
3:00 AM 71.6 °F - 64.4 °F 78% 30.04 in - East 4.6 mph - N/A   Clear
4:00 AM 72 °F - 64 °F 69%  in 12 mi ESE 3.5 mph - -   Clear
4:00 AM 71.6 °F - 64.4 °F 78% 30.01 in - ESE 3.5 mph - N/A   Clear
5:00 AM 71.6 °F - 64.4 °F 78% 30.01 in - East 3.5 mph - N/A   Clear
6:00 AM 69.8 °F - 62.6 °F 78% 30.04 in - NNE 3.5 mph - N/A   Clear
7:00 AM 71.6 °F - 62.6 °F 73% 30.04 in - ENE 2.3 mph - N/A   Clear
8:00 AM 71.6 °F - 62.6 °F 73% 30.06 in - NE 4.6 mph - N/A   Clear
9:00 AM 73.4 °F - 62.6 °F 69% 30.06 in - ENE 6.9 mph - N/A   Clear
10:00 AM 78 °F - 63 °F 50%  in 12 mi NNE 5.8 mph - -  
10:00 AM 78.8 °F - 62.6 °F 57% 30.06 in - NNE 5.8 mph - N/A   Clear
11:00 AM 80.6 °F 81.5 °F 60.8 °F 51% 30.06 in - NE 4.6 mph - N/A   Clear
12:00 PM 86.0 °F 86.1 °F 60.8 °F 43% 30.06 in - NNW 4.6 mph - N/A   Clear
1:00 PM 87.8 °F 86.5 °F 57.2 °F 35% 30.06 in 6.2 mi North 4.6 mph - N/A   Partly Cloudy
2:00 PM 87.8 °F 86.5 °F 57.2 °F 35% 30.04 in 6.2 mi WNW 8.1 mph - N/A   Scattered Clouds
4:00 PM 90 °F - 57 °F 23%  in 12 mi North 5.8 mph - -   Mostly Cloudy
4:00 PM 89.6 °F 88.1 °F 57.2 °F 33% 29.98 in 6.2 mi North 5.8 mph - N/A   Partly Cloudy
5:00 PM 84.2 °F 86.6 °F 66.2 °F 55% 29.95 in 6.2 mi SE 15.0 mph - N/A   Partly Cloudy
5:19 PM 78.8 °F - 62.6 °F 57% 29.98 in 6.2 mi SE 16.1 mph - N/A Thunderstorm Thunderstorm
5:33 PM 75.2 °F - 64.4 °F 69% 30.01 in 6.2 mi ESE 17.3 mph 32.2 mph N/A Rain , Thunderstorm Heavy Thunderstorms and Rain
6:00 PM 66.2 °F - 62.6 °F 88% 30.06 in 0.6 mi NW 21.9 mph 35.7 mph N/A Rain , Thunderstorm Heavy Thunderstorms and Rain
6:32 PM 68.0 °F - 62.6 °F 83% 30.04 in 6.2 mi NNE 6.9 mph - N/A Rain , Thunderstorm Heavy Thunderstorms and Rain
7:00 PM 69.8 °F - 64.4 °F 83% 30.04 in 6.2 mi East 4.6 mph - N/A Rain Light Rain
8:00 PM 71.6 °F - 66.2 °F 83% - 6.2 mi East 6.9 mph - N/A Rain , Thunderstorm Light Thunderstorms and Rain
9:00 PM 71.6 °F - 64.4 °F 78% 30.04 in 6.2 mi ENE 4.6 mph - N/A   Mostly Cloudy
10:00 PM 72 °F - 65 °F 71%  in 7 mi ESE 3.5 mph - -   Haze
10:00 PM 71.6 °F - 64.4 °F 78% 30.04 in 6.2 mi ESE 3.5 mph - N/A   Partly Cloudy
11:00 PM 73.4 °F - 66.2 °F 78% 30.09 in - East 3.5 mph - N/A   Clear